Forside
METAR-TAF:

METAR-TAF

Lufthavne :

Holland, Michigan, USA

Breddekreds: 42-44-46N, længdekreds: 086-05-48W, højde: 209 m

Aktuelle vejr

Denne rapport blev lavet for 27 minutter siden, kl. 01:53 UTC
Vind 5 kt fra varierende retninger
Temperatur 14°C
Fugtighed 51%
Tryk 1012 hPa
Sigt: 16.1 km
skyfri

METAR: KBIV 220153Z AUTO VRB05KT 10SM CLR 14/04 A2989 RMK AO2 SLP119 T01390039

Tid: 22:20 (02:20 UTC)


TAF: fraværende

Vejrobservationer og prognoser fra mere end 4000 lufthavne (METAR og TAF).

De gule og røde prikker repræsenterer de meteorologiske stationer.

Flyt musen over at se navnet på stationen.

Så klik over at se vejr observationer og prognoser.

At skifte det kort: Klik på de grønne knapper med et sort kors for at zoome ind; på den grønne knap med en bindestreg for at zoome ud; eller på de grønne pile for tilstødende kort.


METAR-TAF: